BOBCAT-1 (46922 NORAD) Tracking and Keplerian Element Data
This shows tracking and keplerian element data for the satellite.
Feedback or suggestion? Click here.
Element | Value |
Catalog | 46922 |
Name | BOBCAT-1 |
Epoch Orbit | 1185 |
Epoch Day | 20.63386115 |
Epoch Year | 2021 |
RAAN | 351.4497 |
Inclination | 51.6443 |
Eccentricity | 6.65E-05 |
Argument of Perigee | 233.7174 |
Mean Anonmoly | 126.3755 |
Mean Motion | 15.52047929 |
Decay Rate | 0.00010865 |
L1 | 1 46922U 98067RS 21020.63386115 .00010865 00000-0 18431-3 0 9991 |
L2 | 2 46922 51.6443 351.4497 0000665 233.7174 126.3755 15.52047929 11853 |
Live tracking and technical data element details for BOBCAT-1 (NORAD 46922). BOBCAT-1 can be tracked NOW for your location showing map with azimuth and elevation plus other details from your city location.
Track the satellite on the map from your city or location and see movement details for azimuth, elevation, latitude, longitude, range, height, and movement on the map or in text.
IsCatalogInMostPopularTable: catalog: 46922, numindb: 27
Update: records affected: 1
GetName: 46922 BOBCAT-1
Hit Count: updated at: Fri, 22 Jan 2021 14:59:06 GMT